FW0153 Weather Reports


time (UTC)temp
F
wind
direction
speed
knots
gust
knots
rain 1hr
in
rain 24hr
in
rain mn
in
humidity
%
barometer
mb
20260903164212 90 145 11.3 0.0 0.00 0.00 0.00 49 1010.6
20260903163505 89 57 7.8 0.0 0.00 0.00 0.00 50 1010.6
20260903163005 88 51 11.3 0.0 0.00 0.00 0.00 51 1011.0
20260903162504 89 164 23.5 0.0 0.00 0.00 0.00 52 1010.6
20260903162005 89 214 7.8 0.0 0.00 0.00 0.00 51 1011.0
20260903161713 88 272 3.5 0.0 0.00 0.00 0.00 52 1010.6
20260903161005 88 59 7.8 0.0 0.00 0.00 0.00 54 1011.0
20260903160505 88 176 15.6 0.0 0.00 0.00 0.00 53 1011.0
20260903160005 87 154 11.3 0.0 0.00 0.00 0.00 56 1010.6
20260903155505 87 145 7.8 0.0 0.00 0.00 0.00 56 1010.6
20260903155005 86 93 11.3 0.0 0.00 0.00 0.00 58 1010.6
20260903154505 86 76 20.0 0.0 0.00 0.00 0.00 57 1010.6
20260903154004 86 148 11.3 0.0 0.00 0.00 0.00 58 1010.6
20260903153505 86 104 15.6 0.0 0.00 0.00 0.00 59 1010.6
20260903153005 86 66 11.3 0.0 0.00 0.00 0.00 59 1010.6
20260903152505 86 148 7.8 0.0 0.00 0.00 0.00 59 1010.6
20260903152005 86 118 7.8 0.0 0.00 0.00 0.00 61 1011.0
20260903151505 86 138 11.3 0.0 0.00 0.00 0.00 62 1011.0
20260903151213 85 260 11.3 0.0 0.00 0.00 0.00 62 1011.3
20260903150505 85 146 11.3 0.0 0.00 0.00 0.00 63 1011.3
20260903150005 84 85 11.3 0.0 0.00 0.00 0.00 64 1011.0
20260903145505 84 114 11.3 0.0 0.00 0.00 0.00 66 1011.0
20260903145005 84 213 11.3 0.0 0.00 0.00 0.00 66 1011.0
20260903144505 84 226 7.8 0.0 0.00 0.00 0.00 67 1011.3
20260903144005 84 60 11.3 0.0 0.00 0.00 0.00 68 1011.0
20260903143712 83 170 3.5 0.0 0.00 0.00 0.00 69 1011.0
20260903143005 83 97 11.3 0.0 0.00 0.00 0.00 71 1011.0
20260903142505 83 50 7.8 0.0 0.00 0.00 0.00 72 1011.0
20260903142005 83 121 7.8 0.0 0.00 0.00 0.00 72 1011.3
20260903141504 82 4 11.3 0.0 0.00 0.00 0.00 74 1011.3
20260903141005 82 176 11.3 0.0 0.00 0.00 0.00 75 1011.0
20260903140712 82 341 7.8 0.0 0.00 0.00 0.00 75 1011.3
20260903140005 82 65 15.6 0.0 0.00 0.00 0.00 75 1011.3
20260903135505 81 252 3.5 0.0 0.00 0.00 0.00 78 1011.3
20260903135005 81 104 0.0 0.0 0.00 0.00 0.00 78 1011.3
20260903134505 80 65 3.5 0.0 0.00 0.00 0.00 80 1011.3
20260903134005 80 132 3.5 0.0 0.00 0.00 0.00 81 1011.3
20260903133504 80 82 3.5 0.0 0.00 0.00 0.00 81 1011.3
20260903133005 80 136 7.8 0.0 0.00 0.00 0.00 81 1011.3
20260903132505 80 123 3.5 0.0 0.00 0.00 0.00 82 1011.0
20260903132005 79 67 3.5 0.0 0.00 0.00 0.00 83 1011.0
20260903131505 79 8 11.3 0.0 0.00 0.00 0.00 83 1011.0
20260903131005 79 96 3.5 0.0 0.00 0.00 0.00 83 1011.0
20260903130505 79 122 0.0 0.0 0.00 0.00 0.00 83 1011.0
20260903130005 78 189 3.5 0.0 0.00 0.00 0.00 84 1011.0
20260903125505 78 61 7.8 0.0 0.00 0.00 0.00 84 1010.6
20260903125005 78 61 11.3 0.0 0.00 0.00 0.00 84 1010.6
20260903124711 78 126 3.5 0.0 0.00 0.00 0.00 84 1011.0
20260903124005 78 178 3.5 0.0 0.00 0.00 0.00 84 1010.6
20260903123505 78 125 3.5 0.0 0.00 0.00 0.00 84 1010.6
20260903123005 78 108 3.5 0.0 0.00 0.00 0.00 84 1011.0
20260903122713 78 118 3.5 0.0 0.00 0.00 0.00 84 1010.6
20260903122005 78 123 3.5 0.0 0.00 0.00 0.00 84 1010.6
20260903121504 78 133 0.0 0.0 0.00 0.00 0.00 84 1010.6
20260903121005 78 63 3.5 0.0 0.00 0.00 0.00 84 1010.6
20260903120505 78 115 7.8 0.0 0.00 0.00 0.00 84 1010.6
20260903120005 78 109 11.3 0.0 0.00 0.00 0.00 84 1011.0
20260903115505 78 53 0.0 0.0 0.00 0.00 0.00 84 1010.6
20260903115005 78 100 0.0 0.0 0.00 0.00 0.00 84 1010.6
20260903114505 78 103 0.0 0.0 0.00 0.00 0.00 84 1010.6
20260903114005 78 152 3.5 0.0 0.00 0.00 0.00 83 1010.6
20260903113505 78 141 3.5 0.0 0.00 0.00 0.00 83 1010.6
20260903113005 79 140 0.0 0.0 0.00 0.00 0.00 83 1010.6
20260903112504 79 87 3.5 0.0 0.00 0.00 0.00 83 1011.0
20260903112005 79 152 7.8 0.0 0.00 0.00 0.00 83 1010.6
20260903111505 79 97 7.8 0.0 0.00 0.00 0.00 83 1010.6
20260903111005 79 90 7.8 0.0 0.00 0.00 0.00 83 1010.6
20260903110505 79 160 3.5 0.0 0.00 0.00 0.00 83 1010.3
20260903110005 79 131 7.8 0.0 0.00 0.00 0.00 83 1010.6
20260903105505 79 82 3.5 0.0 0.00 0.00 0.00 83 1010.6
20260903105005 79 145 3.5 0.0 0.00 0.00 0.00 83 1010.6
20260903104505 79 122 3.5 0.0 0.00 0.00 0.00 83 1010.6
20260903104005 79 142 3.5 0.0 0.00 0.00 0.00 83 1010.6
20260903103505 79 159 3.5 0.0 0.00 0.00 0.00 83 1010.6
20260903103005 79 121 0.0 0.0 0.00 0.00 0.00 83 1010.3
20260903102713 79 142 7.8 0.0 0.00 0.00 0.00 83 1010.6
20260903102005 79 168 0.0 0.0 0.00 0.00 0.00 83 1010.6
20260903101505 79 91 11.3 0.0 0.00 0.00 0.00 83 1010.6
20260903101005 79 173 15.6 0.0 0.00 0.00 0.00 83 1010.3
20260903100505 79 150 0.0 0.0 0.00 0.00 0.00 83 1010.6
20260903100005 79 159 7.8 0.0 0.00 0.00 0.00 83 1010.6
20260903095505 79 166 7.8 0.0 0.00 0.00 0.00 83 1010.6
20260903095213 79 180 7.8 0.0 0.00 0.00 0.00 83 1011.0
20260903094712 79 62 3.5 0.0 0.00 0.00 0.00 82 1010.6
20260903094005 80 156 11.3 0.0 0.00 0.00 0.00 82 1010.6
20260903093504 80 158 20.0 0.0 0.00 0.00 0.00 82 1010.6
20260903093005 80 186 20.0 0.0 0.00 0.00 0.00 82 1010.6
20260903092505 80 162 7.8 0.0 0.00 0.00 0.00 82 1011.0
20260903092005 80 141 3.5 0.0 0.00 0.00 0.00 82 1010.6
20260903091505 80 160 7.8 0.0 0.00 0.00 0.00 82 1010.6
20260903091213 80 159 20.0 0.0 0.00 0.00 0.00 82 1011.0
20260903090505 80 26 3.5 0.0 0.00 0.00 0.00 82 1011.0
20260903090005 80 160 15.6 0.0 0.00 0.00 0.00 81 1011.0
20260903085505 80 70 11.3 0.0 0.00 0.00 0.00 81 1011.0
20260903085005 80 127 15.6 0.0 0.00 0.00 0.00 81 1011.0
20260903084712 80 207 15.6 0.0 0.00 0.00 0.00 81 1011.0
20260903084005 80 62 11.3 0.0 0.00 0.00 0.00 81 1011.0
20260903083505 80 152 15.6 0.0 0.00 0.00 0.00 81 1011.0
20260903083005 80 163 15.6 0.0 0.00 0.00 0.00 81 1011.0
20260903082504 80 148 11.3 0.0 0.00 0.00 0.00 80 1011.3
20260903082213 80 153 7.8 0.0 0.00 0.00 0.00 80 1011.0
20260903081505 80 170 47.8 0.0 0.00 0.00 0.00 80 1011.0
20260903081004 80 152 15.6 0.0 0.00 0.00 0.00 80 1011.3
20260903080505 80 59 7.8 0.0 0.00 0.00 0.00 80 1011.3
20260903080005 80 150 7.8 0.0 0.00 0.00 0.00 80 1011.3
20260903075505 80 139 11.3 0.0 0.00 0.00 0.00 80 1011.3
20260903075005 80 147 11.3 0.0 0.00 0.00 0.00 79 1011.3
20260903074505 80 179 7.8 0.0 0.00 0.00 0.00 79 1011.3
20260903074005 80 167 3.5 0.0 0.00 0.00 0.00 79 1011.3
20260903073505 80 141 3.5 0.0 0.00 0.00 0.00 79 1011.3
20260903073005 80 52 3.5 0.0 0.00 0.00 0.00 79 1011.3
20260903072711 80 164 15.6 0.0 0.00 0.00 0.00 79 1011.6
20260903072005 80 119 7.8 0.0 0.00 0.00 0.00 79 1011.3
20260903071505 80 150 11.3 0.0 0.00 0.00 0.00 79 1011.3
20260903071005 80 9 7.8 0.0 0.00 0.00 0.00 79 1011.0
20260903070505 80 62 3.5 0.0 0.00 0.00 0.00 80 1011.0
20260903070005 80 100 3.5 0.0 0.00 0.00 0.00 80 1011.3
20260903065505 80 123 3.5 0.0 0.00 0.00 0.00 80 1011.6
20260903065004 80 77 7.8 0.0 0.00 0.00 0.00 79 1011.3
20260903064505 80 82 11.3 0.0 0.00 0.00 0.00 79 1011.6
20260903064005 80 100 7.8 0.0 0.00 0.00 0.00 79 1011.3
20260903063505 80 160 11.3 0.0 0.00 0.00 0.00 79 1011.6
20260903063005 80 29 11.3 0.0 0.00 0.00 0.00 79 1011.3
20260903062713 80 61 3.5 0.0 0.00 0.00 0.00 78 1011.3
20260903062005 80 106 15.6 0.0 0.00 0.00 0.00 78 1011.3
20260903061713 80 149 7.8 0.0 0.00 0.00 0.00 78 1011.3
20260903061005 80 187 7.8 0.0 0.00 0.00 0.00 78 1011.3
20260903060505 80 143 11.3 0.0 0.00 0.00 0.00 77 1011.3
20260903060005 80 182 7.8 0.0 0.00 0.00 0.00 77 1011.6
20260903055505 80 23 11.3 0.0 0.00 0.00 0.00 77 1011.3
20260903055004 80 61 7.8 0.0 0.00 0.00 0.00 77 1011.6
20260903054505 80 139 7.8 0.0 0.00 0.00 0.00 77 1011.6
20260903054212 80 133 15.6 0.0 0.00 0.00 0.00 77 1011.6
20260903053505 80 274 11.3 0.0 0.00 0.00 0.00 77 1011.6
20260903053005 80 89 7.8 0.0 0.00 0.00 0.00 77 1011.6
20260903052505 80 80 15.6 0.0 0.00 0.00 0.00 77 1011.6
20260903052005 80 83 7.8 0.0 0.00 0.00 0.00 77 1011.6
20260903051505 80 141 3.5 0.0 0.00 0.00 0.00 77 1012.0
20260903051005 81 44 3.5 0.0 0.00 0.00 0.00 77 1011.6
20260903050505 81 156 11.3 0.0 0.00 0.00 0.00 77 1011.6
20260903045526 81 39 7.8 0.0 0.00 0.00 0.00 77 1011.6
20260903045236 81 106 11.3 0.0 0.00 0.00 0.00 77 1011.6
20260903044739 81 103 11.3 0.0 0.00 0.00 0.00 77 1011.6
20260903044008 81 165 3.5 0.0 0.00 0.00 0.00 77 1011.6
20260903043507 81 320 11.3 0.0 0.00 0.00 0.00 77 1011.6
20260903043014 81 79 7.8 0.0 0.00 0.00 0.00 77 1012.0
20260903042517 81 70 7.8 0.0 0.00 0.00 0.00 77 1012.0
20260903042228 81 40 3.5 0.0 0.00 0.00 0.00 77 1011.6
20260903041731 81 7 3.5 0.0 0.00 0.00 0.00 78 1012.0
20260903041234 81 123 3.5 0.0 0.00 0.00 0.00 78 1012.0
20260903040527 81 74 7.8 0.0 0.00 0.00 0.00 78 1012.0
20260903040032 81 102 7.8 0.0 0.00 0.00 0.00 78 1012.0
20260903035714 81 143 3.5 0.0 0.00 0.00 0.00 78 1012.0
20260903035010 81 48 11.3 0.0 0.00 0.00 0.00 78 1012.0
20260903034720 81 127 7.8 0.0 0.00 0.00 0.00 77 1011.6
20260903034017 81 49 15.6 0.0 0.00 0.00 0.00 77 1011.6
20260903033519 81 91 11.3 0.0 0.00 0.00 0.00 76 1011.6
20260903033023 81 71 3.5 0.0 0.00 0.00 0.00 76 1011.6
20260903032526 81 66 7.8 0.0 0.00 0.00 0.00 76 1011.6
20260903032029 81 104 3.5 0.0 0.00 0.00 0.00 75 1011.6
20260903031532 81 115 7.8 0.0 0.00 0.00 0.00 75 1011.6
20260903031007 82 111 11.3 0.0 0.00 0.00 0.00 75 1011.6
20260903030718 82 72 3.5 0.0 0.00 0.00 0.00 75 1011.3
20260903030013 82 201 7.8 0.0 0.00 0.00 0.00 74 1011.3
20260903025724 82 31 3.5 0.0 0.00 0.00 0.00 74 1011.3
20260903025019 82 180 11.3 0.0 0.00 0.00 0.00 73 1011.0
20260903024522 82 80 15.6 0.0 0.00 0.00 0.00 73 1011.3
20260903024233 82 113 15.6 0.0 0.00 0.00 0.00 72 1010.6
20260903023528 82 129 11.3 0.0 0.00 0.00 0.00 72 1011.0
20260903023031 82 88 15.6 0.0 0.00 0.00 0.00 72 1010.6
20260903022507 83 347 11.3 0.0 0.00 0.00 0.00 72 1010.6
20260903022010 83 76 15.6 0.0 0.00 0.00 0.00 72 1010.6
20260903021513 83 86 7.8 0.0 0.00 0.00 0.00 71 1010.6
20260903021016 83 347 7.8 0.0 0.00 0.00 0.00 70 1010.3
20260903020520 83 13 11.3 0.0 0.00 0.00 0.00 70 1009.9
20260903020022 83 112 11.3 0.0 0.00 0.00 0.00 69 1009.9
20260903015525 83 75 11.3 0.0 0.00 0.00 0.00 68 1010.3
20260903015029 83 94 7.8 0.0 0.00 0.00 0.00 67 1009.9
20260903014531 83 86 15.6 0.0 0.00 0.00 0.00 66 1009.6
20260903014007 84 76 3.5 0.0 0.00 0.00 0.00 65 1009.6
20260903013510 84 80 20.0 0.0 0.00 0.00 0.00 64 1009.6
20260903013013 85 70 11.3 0.0 0.00 0.00 0.00 62 1009.6
20260903012516 85 64 3.5 0.0 0.00 0.00 0.00 61 1009.3
20260903012019 85 47 11.3 0.0 0.00 0.00 0.00 61 1009.6
20260903011523 85 145 11.3 0.0 0.00 0.00 0.00 60 1009.3
20260903011025 85 126 7.8 0.0 0.00 0.00 0.00 59 1009.6
20260903010528 86 49 11.3 0.0 0.00 0.00 0.00 58 1008.9
20260903010032 86 122 11.3 0.0 0.00 0.00 0.00 57 1008.9
20260903005507 86 235 11.3 0.0 0.00 0.00 0.00 56 1009.3
20260903005011 86 358 11.3 0.0 0.00 0.00 0.00 55 1008.9
20260903004513 86 170 11.3 0.0 0.00 0.00 0.00 53 1008.9
20260903004016 87 98 15.6 0.0 0.00 0.00 0.00 51 1008.6
20260903003519 87 132 20.0 0.0 0.00 0.00 0.00 49 1008.9
20260903003022 87 4 20.0 0.0 0.00 0.00 0.00 49 1008.9
20260903002525 88 85 11.3 0.0 0.00 0.00 0.00 49 1008.9
20260903002028 88 98 20.0 0.0 0.00 0.00 0.00 47 1008.9
20260903001531 88 117 11.3 0.0 0.00 0.00 0.00 45 1008.9
20260903001007 88 118 3.5 0.0 0.00 0.00 0.00 44 1008.6
20260903000510 89 84 3.5 0.0 0.00 0.00 0.00 44 1008.6
20260903000013 89 49 0.0 0.0 0.00 0.00 0.00 45 1008.9
20260902235516 89 108 3.5 0.0 0.00 0.00 0.00 46 1008.6
20260902235019 89 115 23.5 0.0 0.00 0.00 0.00 46 1008.6
20260902234522 89 150 3.5 0.0 0.00 0.00 0.00 46 1008.6
20260902234025 89 135 15.6 0.0 0.00 0.00 0.00 45 1008.6
20260902233528 89 49 15.6 0.0 0.00 0.00 0.00 45 1008.6
20260902233031 89 142 11.3 0.0 0.00 0.00 0.00 45 1008.6
20260902232507 90 102 15.6 0.0 0.00 0.00 0.00 44 1008.6
20260902232010 91 29 7.8 0.0 0.00 0.00 0.00 44 1008.6
20260902231720 91 96 23.5 0.0 0.00 0.00 0.00 43 1008.6
20260902231016 91 62 20.0 0.0 0.00 0.00 0.00 44 1008.6
20260902230519 92 64 7.8 0.0 0.00 0.00 0.00 42 1008.6
20260902230022 91 185 11.3 0.0 0.00 0.00 0.00 42 1008.6
20260902225733 92 86 11.3 0.0 0.00 0.00 0.00 41 1008.6
20260902225236 92 79 20.0 0.0 0.00 0.00 0.00 39 1008.6
20260902224531 92 58 15.6 0.0 0.00 0.00 0.00 36 1008.6
20260902224007 92 84 7.8 0.0 0.00 0.00 0.00 34 1008.6
20260902223510 93 80 11.3 0.0 0.00 0.00 0.00 34 1008.2
20260902223013 93 206 7.8 0.0 0.00 0.00 0.00 33 1008.6
20260902222516 93 73 20.0 0.0 0.00 0.00 0.00 33 1008.6
20260902222019 93 57 7.8 0.0 0.00 0.00 0.00 33 1008.6
20260902221522 94 67 7.8 0.0 0.00 0.00 0.00 33 1008.6
20260902221025 93 108 11.3 0.0 0.00 0.00 0.00 33 1008.6
20260902220528 94 153 11.3 0.0 0.00 0.00 0.00 33 1008.6
20260902220031 93 104 11.3 0.0 0.00 0.00 0.00 34 1008.2
20260902215507 94 78 11.3 0.0 0.00 0.00 0.00 34 1008.6
20260902215010 94 55 7.8 0.0 0.00 0.00 0.00 34 1008.6
20260902214720 94 92 20.0 0.0 0.00 0.00 0.00 33 1008.6
20260902214016 94 167 11.3 0.0 0.00 0.00 0.00 33 1008.2
20260902213726 94 84 11.3 0.0 0.00 0.00 0.00 32 1008.6
20260902213022 94 111 7.8 0.0 0.00 0.00 0.00 32 1008.6
20260902212525 94 18 15.6 0.0 0.00 0.00 0.00 33 1008.6
20260902212028 95 154 7.8 0.0 0.00 0.00 0.00 34 1008.6
20260902211531 95 117 15.6 0.0 0.00 0.00 0.00 34 1008.9
20260902211007 94 55 20.0 0.0 0.00 0.00 0.00 35 1008.9
20260902210510 95 146 7.8 0.0 0.00 0.00 0.00 35 1008.9
20260902210013 95 1 11.3 0.0 0.00 0.00 0.00 35 1008.9
20260902205724 95 191 15.6 0.0 0.00 0.00 0.00 34 1008.9
20260902205019 94 108 3.5 0.0 0.00 0.00 0.00 35 1008.9
20260902204522 95 61 11.3 0.0 0.00 0.00 0.00 35 1009.3
20260902204025 95 90 3.5 0.0 0.00 0.00 0.00 37 1009.3
20260902203510 94 139 7.8 0.0 0.00 0.00 0.00 37 1009.3
20260902203031 95 354 15.6 0.0 0.00 0.00 0.00 35 1009.3
20260902202507 95 323 7.8 0.0 0.00 0.00 0.00 36 1009.3
20260902202218 95 154 11.3 0.0 0.00 0.00 0.00 37 1009.6
20260902201513 95 171 11.3 0.0 0.00 0.00 0.00 36 1009.6
20260902201016 95 142 7.8 0.0 0.00 0.00 0.00 37 1009.6
20260902200727 95 136 3.5 0.0 0.00 0.00 0.00 36 1009.6
20260902200022 95 177 7.8 0.0 0.00 0.00 0.00 37 1009.9
20260902195525 95 230 3.5 0.0 0.00 0.00 0.00 38 1009.9
20260902195236 95 154 11.3 0.0 0.00 0.00 0.00 36 1009.9
20260902194531 94 41 15.6 0.0 0.00 0.00 0.00 36 1009.9
20260902194214 94 23 11.3 0.0 0.00 0.00 0.00 38 1010.3
20260902193510 93 163 15.6 0.0 0.00 0.00 0.00 38 1010.3
20260902193013 94 110 7.8 0.0 0.00 0.00 0.00 37 1010.3
20260902192723 95 137 3.5 0.0 0.00 0.00 0.00 36 1010.3
20260902192019 95 160 7.8 0.0 0.00 0.00 0.00 37 1010.3
20260902191522 94 111 3.5 0.0 0.00 0.00 0.00 37 1010.3
20260902191025 94 53 11.3 0.0 0.00 0.00 0.00 38 1010.6
20260902190735 94 201 3.5 0.0 0.00 0.00 0.00 38 1011.0
20260902190031 93 139 3.5 0.0 0.00 0.00 0.00 40 1011.0
20260902185507 92 92 15.6 0.0 0.00 0.00 0.00 39 1011.0
20260902185010 94 126 3.5 0.0 0.00 0.00 0.00 40 1011.0
20260902184513 92 100 7.8 0.0 0.00 0.00 0.00 42 1011.3
20260902184016 92 68 7.8 0.0 0.00 0.00 0.00 41 1011.3
20260902183519 93 146 20.0 0.0 0.00 0.00 0.00 41 1011.3
20260902183022 92 150 7.8 0.0 0.00 0.00 0.00 43 1011.3
20260902182733 92 88 11.3 0.0 0.00 0.00 0.00 40 1011.3
20260902182028 92 20 7.8 0.0 0.00 0.00 0.00 42 1011.3
20260902181531 92 37 7.8 0.0 0.00 0.00 0.00 43 1011.6
20260902181215 92 158 3.5 0.0 0.00 0.00 0.00 42 1011.6
20260902180507 92 131 15.6 0.0 0.00 0.00 0.00 41 1011.6
20260902180013 92 150 3.5 0.0 0.00 0.00 0.00 44 1012.0
20260902175505 91 156 11.3 0.0 0.00 0.00 0.00 42 1012.0
20260902175005 92 33 11.3 0.0 0.00 0.00 0.00 43 1012.0
20260902174505 92 99 11.3 0.0 0.00 0.00 0.00 44 1012.3
20260902174005 91 154 20.0 0.0 0.00 0.00 0.00 45 1012.3
20260902173712 91 53 7.8 0.0 0.00 0.00 0.00 44 1012.3
20260902173005 90 79 11.3 0.0 0.00 0.00 0.00 45 1012.3
20260902172505 91 164 23.5 0.0 0.00 0.00 0.00 45 1012.3
20260902172005 90 163 3.5 0.0 0.00 0.00 0.00 47 1012.3
20260902171505 90 94 15.6 0.0 0.00 0.00 0.00 47 1012.3
20260902171005 90 238 3.5 0.0 0.00 0.00 0.00 48 1012.3
20260902170712 89 105 20.0 0.0 0.00 0.00 0.00 49 1012.7
20260902170005 89 157 20.0 0.0 0.00 0.00 0.00 49 1012.7
20260902165712 89 154 7.8 0.0 0.00 0.00 0.00 51 1012.7
20260902165005 90 172 3.5 0.0 0.00 0.00 0.00 49 1012.7
20260902164505 89 105 11.3 0.0 0.00 0.00 0.00 52 1013.0